sat.trackr.live / text

‹ back to catalog

STARLINK-30553

NORAD 58056 · 2023-158F

PAYLOAD ACTIVE UNKNOWN

§ Identity

Operator
Country
US
Launch date
2023-10-13
Launch site
AFETR
Launch vehicle
Mass (kg)
RCS (m²)

Purposes: comms

External: N2YO · Heavens-Above · Gunter

§ Orbital elements

Epoch: 2026-05-24T21:05:30.772032Z

Period
94.27 min
Inclination
43.0014°
Eccentricity
0.0001506
Mean motion
15.27583404 rev/d
Perigee alt
482.0 km
Apogee alt
484.1 km
Semi-major
6,861.2 km
B*
1.2698e-4
RAAN
316.6417°
Arg perigee
263.8406°
Mean anomaly
96.2274°
Rev number
14,522

§ Raw data

STARLINK-305531 58056U 23158F   26144.87882838  .00003234  00000+0  12698-3 0  99922 58056  43.0014 316.6417 0001506 263.8406  96.2274 15.27583404145220

JSON: /api/v1/satellites/58056 · /tle

For live sub-satellite position, see the globe view (requires WebGL).

§ Visibility from observer

Set your observer location to see the next 7 days of passes ≥ 10°. The values pass through the URL so the page stays shareable.

No JS? Fill the form by hand. The geolocation button needs JavaScript.